Regional Weather Roundup
Issued by NWS

Home | Current Version | Previous Version | Graphics & Text | Print | Product List | Glossary On
Versions: 1 2 3 4 5 6 7 8 9 10 11 12 13 14 15 16 17 18 19 20 21 22 23 24 25 26 27 28 29 30 31 32 33 34 35 36 37 38 39 40 41 42 43 44 45 46 47 48 49 50
000
ASUS43 KLSX 251307
RWRMO

WEATHER SUMMARY FOR MISSOURI
NATIONAL WEATHER SERVICE SPRINGFIELD MO
700 AM CST SUN JAN 25 2015

NOTE: "FAIR" INDICATES FEW OR NO CLOUDS BELOW 12,000 FEET WITH NO
       SIGNIFICANT WEATHER AND/OR OBSTRUCTIONS TO VISIBILITY.
       CURRENT SKY AND/OR WEATHER CONDITIONS ARE NOT AVAILABLE FOR
       CHILLICOTHE AND FARMINGTON.

MOZ001>031-035>038-043-044-053-054-251400-
...NORTHERN AND WESTERN MISSOURI...

CITY           SKY/WX    TMP DP  RH WIND       PRES   REMARKS
KANSAS CTY INT CLOUDY    39  34  82 NW21G28   29.67R WCI  29
KANSAS C DTWN  CLOUDY    43  36  76 NW17G23   29.67R
LEE`S SUMMIT   CLOUDY    43  36  76 NW15G26   29.66R
ST JOSEPH      LGT RAIN  37  34  89 NW25G35   29.70R WCI  25
CHILLICOTHE      N/A     42  38  85 NW9G18    29.62R
KIRKSVILLE     CLOUDY    42  41  96 W6        29.56R

$$
MOZ066>068-077>081-088>096-101>105-251400-
...SOUTHWEST MISSOURI...

CITY           SKY/WX    TMP DP  RH WIND       PRES   REMARKS
SPRINGFIELD    CLOUDY    46  37  71 W9        29.66S
JOPLIN         CLOUDY    48  35  60 NW9       29.73R

$$
MOZ032>034-039>042-045>050-055>058-069>072-251400-
...CENTRAL MISSOURI...

CITY           SKY/WX    TMP DP  RH WIND       PRES   REMARKS
COLUMBIA       MOCLDY    44  42  93 W13       29.59S
JEFFERSON CITY MOCLDY    46  40  79 W12       29.61R
ROLLA          CLOUDY    45  40  82 W9        29.59S
SEDALIA        CLOUDY    46  39  76 NW15      29.62S
WHITEMAN AFB   CLOUDY    45  38  78 NW13      29.62S
WARRENSBURG    CLOUDY    43  37  81 W10G16    29.64R
OSAGE BEACH    CLOUDY    45  39  81 W7        29.62S

$$
MOZ051-052-059>065-251400-
...EAST CENTRAL MISSOURI...

CITY           SKY/WX    TMP DP  RH WIND       PRES   REMARKS
ST LOUIS INTL  LGT RAIN  46  42  86 SW7       29.60S FOG
SPIRIT OF STL  CLOUDY    45  41  86 S5        29.59S
ST CHARLES     LGT RAIN  41  40  96 S3        29.59S FOG

$$
MOZ072>076-082>087-097>100-106>115-251400-
...SOUTH CENTRAL AND SOUTHEAST MISSOURI...

CITY           SKY/WX    TMP DP  RH WIND       PRES   REMARKS
CAPE GIRARDEAU LGT RAIN  39  36  89 S6        29.68F
FARMINGTON     CLOUDY    45  32  61 MISG      29.64F
POPLAR BLUFF   LGT RAIN  40  35  83 SW8       29.68F
WEST PLAINS    CLOUDY    43  38  82 SW12      29.66S

$$


USA.gov is the U.S. government's official web portal to all federal, state and local government web resources and services.